DW1256 Weather Reports


Display with metric or nautical units.
time (UTC)temp
F
wind
direction
speed
MPH
gust
MPH
rain 1hr
in
rain 24hr
in
rain mn
in
humidity
%
barometer
mb
20260508130453 51 0 2.0 6.0 0.01 0.08 0.07 67 1010.3
20260508125953 51 0 2.0 8.0 0.01 0.08 0.07 68 1010.3
20260508125451 51 0 2.0 8.0 0.01 0.08 0.07 68 1010.3
20260508124950 51 0 2.0 6.0 0.01 0.08 0.07 68 1010.3
20260508124451 50 0 2.0 5.0 0.01 0.08 0.07 68 1010.3
20260508123946 50 0 2.0 3.0 0.01 0.08 0.07 68 1010.3
20260508123446 50 0 2.0 5.0 0.01 0.08 0.07 68 1010.3
20260508122948 50 0 2.0 6.0 0.01 0.08 0.07 68 1010.3
20260508122447 50 0 2.0 6.0 0.01 0.08 0.07 68 1010.3
20260508121444 49 0 2.0 4.0 0.01 0.08 0.07 68 1010.3
20260508120946 49 0 2.0 5.0 0.01 0.08 0.07 68 1010.2
20260508120446 49 0 2.0 5.0 0.00 0.07 0.06 69 1010.1
20260508115942 49 0 2.0 5.0 0.00 0.07 0.06 69 1010.3
20260508115441 49 0 2.0 4.0 0.00 0.07 0.06 69 1010.3
20260508114941 49 0 1.0 4.0 0.00 0.07 0.06 69 1010.3
20260508114442 49 0 1.0 3.0 0.00 0.07 0.06 69 1010.3
20260508113938 49 0 1.0 4.0 0.00 0.07 0.06 69 1010.3
20260508113439 49 0 2.0 6.0 0.00 0.07 0.06 69 1010.2
20260508111939 49 0 2.0 5.0 0.00 0.07 0.06 70 1010.1
20260508111442 49 0 2.0 5.0 0.00 0.07 0.06 70 1010.0
20260508110936 49 0 1.0 5.0 0.00 0.07 0.06 70 1010.0
20260508105923 48 0 1.0 3.0 0.00 0.07 0.06 70 1010.1
20260508105417 48 0 1.0 4.0 0.00 0.07 0.06 70 1010.1
20260508104912 49 0 1.0 4.0 0.00 0.07 0.06 70 1010.1
20260508104405 49 0 0.0 3.0 0.00 0.07 0.06 70 1010.1
20260508103859 49 0 1.0 4.0 0.00 0.07 0.06 70 1010.0
20260508103353 49 0 1.0 4.0 0.00 0.07 0.06 70 1010.1
20260508102847 49 0 2.0 4.0 0.00 0.07 0.06 71 1010.1
20260508101836 49 0 1.0 5.0 0.00 0.07 0.06 71 1010.0
20260508101330 49 0 1.0 4.0 0.00 0.07 0.06 71 1010.0
20260508100827 49 0 0.0 1.0 0.00 0.07 0.06 70 1010.1
20260508100327 49 0 0.0 1.0 0.00 0.07 0.06 70 1010.2
20260508095828 49 0 0.0 2.0 0.00 0.07 0.06 70 1010.3
20260508095325 50 0 0.0 3.0 0.00 0.07 0.06 70 1010.2
20260508094324 50 0 1.0 2.0 0.00 0.07 0.06 70 1010.2
20260508093324 50 0 1.0 3.0 0.00 0.07 0.06 70 1010.4
20260508092825 50 0 0.0 1.0 0.01 0.07 0.06 70 1010.4
20260508092324 50 0 0.0 1.0 0.04 0.07 0.06 70 1010.3
20260508091325 50 0 0.0 2.0 0.04 0.07 0.06 69 1010.8
20260508090825 50 0 0.0 2.0 0.04 0.07 0.06 69 1010.8
20260508090324 50 0 0.0 2.0 0.04 0.07 0.06 69 1010.5
20260508085824 50 0 1.0 3.0 0.04 0.07 0.06 69 1010.7
20260508085325 50 0 1.0 3.0 0.04 0.07 0.06 69 1010.9
20260508084825 50 0 1.0 3.0 0.04 0.07 0.06 68 1010.2
20260508084318 51 0 0.0 3.0 0.04 0.07 0.06 68 1010.4
20260508083812 51 0 0.0 1.0 0.04 0.07 0.06 68 1010.7
20260508083312 51 0 2.0 8.0 0.04 0.07 0.06 68 1010.9
20260508082811 51 0 2.0 8.0 0.04 0.06 0.05 67 1011.1
20260508082311 51 0 1.0 4.0 0.02 0.03 0.02 67 1011.1
20260508081810 51 0 1.0 4.0 0.02 0.03 0.02 67 1010.3
20260508081308 51 0 1.0 4.0 0.02 0.03 0.02 66 1010.4
20260508080808 51 0 1.0 4.0 0.02 0.03 0.02 66 1010.3
20260508080309 51 0 1.0 2.0 0.02 0.03 0.02 66 1010.7
20260508073803 52 0 3.0 9.0 0.02 0.03 0.02 64 1011.3
20260508073302 52 0 3.0 9.0 0.02 0.03 0.02 64 1011.6
20260508072805 52 0 4.0 11.0 0.00 0.01 0.00 64 1011.3
20260508072301 52 0 5.0 11.0 0.00 0.01 0.00 64 1011.6
20260508071800 52 0 5.0 14.0 0.00 0.01 0.00 64 1011.3
20260508070801 51 0 1.0 5.0 0.00 0.01 0.00 64 1010.8
20260508070255 51 0 0.0 4.0 0.00 0.01 0.00 63 1010.7
20260508065749 51 0 1.0 6.0 0.00 0.01 0.00 64 1010.4
20260508065242 51 0 1.0 6.0 0.00 0.01 0.00 64 1010.3
20260508064736 51 0 1.0 6.0 0.00 0.01 0.00 64 1010.3
20260508063219 51 0 1.0 5.0 0.00 0.01 0.00 63 1010.5
20260508062719 51 0 1.0 5.0 0.00 0.01 0.00 63 1010.7
20260508062220 52 0 1.0 5.0 0.00 0.01 0.00 63 1010.8
20260508061719 52 0 2.0 6.0 0.00 0.01 0.00 63 1010.9
20260508061216 52 0 1.0 6.0 0.00 0.01 0.00 63 1010.9
20260508060715 52 0 1.0 4.0 0.00 0.01 0.00 63 1010.8
20260508055714 52 0 1.0 3.0 0.00 0.01 0.00 63 1011.0
20260508054714 52 0 1.0 4.0 0.00 0.01 0.00 62 1011.3
20260508054213 52 0 2.0 5.0 0.00 0.01 0.00 62 1011.3
20260508053710 52 0 2.0 6.0 0.00 0.01 0.00 62 1011.3
20260508053210 52 0 2.0 8.0 0.00 0.01 0.00 62 1011.2
20260508052710 52 0 2.0 8.0 0.00 0.01 0.00 62 1011.1
20260508051207 51 0 0.0 3.0 0.00 0.01 0.00 62 1010.8
20260508050707 51 0 1.0 4.0 0.00 0.01 0.00 62 1010.7
20260508050205 51 0 1.0 5.0 0.00 0.01 0.00 62 1010.8
20260508045704 51 0 1.0 5.0 0.00 0.01 0.01 62 1010.9
20260508044652 51 0 1.0 4.0 0.00 0.01 0.01 62 1010.8
20260508044146 51 0 2.0 5.0 0.00 0.01 0.01 62 1010.9
20260508043134 51 0 2.0 4.0 0.00 0.01 0.01 61 1010.9
20260508042628 51 0 1.0 4.0 0.00 0.01 0.01 61 1010.8
20260508042122 51 0 1.0 4.0 0.00 0.01 0.01 61 1010.9
20260508041616 51 0 1.0 4.0 0.00 0.01 0.01 60 1010.9
20260508041110 51 0 1.0 3.0 0.00 0.01 0.01 60 1010.9
20260508035552 51 0 1.0 3.0 0.00 0.01 0.01 60 1010.9
20260508035047 51 0 1.0 3.0 0.00 0.01 0.01 60 1010.9
20260508034540 51 0 1.0 5.0 0.00 0.01 0.01 60 1010.9
20260508034035 51 0 1.0 5.0 0.00 0.01 0.01 60 1010.7
20260508033528 51 0 1.0 3.0 0.00 0.01 0.01 60 1010.7
20260508033022 51 0 1.0 5.0 0.00 0.01 0.01 60 1010.7
20260508032011 51 0 1.0 5.0 0.00 0.01 0.01 60 1010.7
20260508031504 51 0 1.0 5.0 0.00 0.01 0.01 60 1010.7
20260508030958 51 0 1.0 5.0 0.00 0.01 0.01 60 1010.8
20260508030452 51 0 1.0 5.0 0.00 0.01 0.01 59 1010.8
20260508024429 51 0 1.0 4.0 0.00 0.01 0.01 58 1010.8
20260508023417 51 0 1.0 3.0 0.00 0.01 0.01 57 1010.7
20260508022911 52 0 1.0 3.0 0.00 0.01 0.01 57 1010.5
20260508022404 52 0 1.0 4.0 0.00 0.01 0.01 56 1010.5
20260508021858 52 0 2.0 4.0 0.00 0.01 0.01 56 1010.5
20260508020847 53 0 2.0 6.0 0.00 0.01 0.01 55 1010.5
20260508015344 53 0 2.0 6.0 0.00 0.01 0.01 53 1010.3
20260508014844 53 0 2.0 4.0 0.00 0.01 0.01 52 1010.2
20260508014344 54 0 1.0 4.0 0.00 0.01 0.01 52 1010.1
20260508013343 54 0 1.0 5.0 0.00 0.01 0.01 50 1010.0
20260508012841 54 0 2.0 5.0 0.00 0.01 0.01 50 1010.1
20260508012341 55 0 3.0 6.0 0.00 0.01 0.01 49 1010.1
20260508011841 55 0 3.0 11.0 0.00 0.01 0.01 49 1010.1
20260508011342 55 0 3.0 11.0 0.00 0.01 0.01 49 1010.0
20260508005841 56 0 3.0 10.0 0.00 0.01 0.01 48 1009.9
20260508005342 56 0 2.0 10.0 0.00 0.01 0.01 47 1009.9
20260508004842 57 0 2.0 6.0 0.00 0.01 0.01 47 1009.9
20260508004336 57 0 2.0 10.0 0.00 0.01 0.01 47 1009.8
20260508003830 57 0 2.0 10.0 0.00 0.01 0.01 47 1009.7
20260508003324 58 0 2.0 5.0 0.00 0.01 0.01 47 1009.8
20260508002818 58 0 2.0 5.0 0.00 0.01 0.01 47 1009.8
20260508002311 58 0 2.0 8.0 0.00 0.01 0.01 47 1009.8
20260508001806 58 0 3.0 9.0 0.00 0.01 0.01 46 1009.9
20260508001300 58 0 3.0 10.0 0.00 0.01 0.01 46 1009.8
20260508000754 58 0 3.0 8.0 0.00 0.01 0.01 45 1009.9
20260508000250 58 0 3.0 8.0 0.00 0.01 0.01 44 1009.9
20260507235742 59 0 4.0 10.0 0.00 0.01 0.01 43 1009.8
20260507234729 60 0 4.0 9.0 0.00 0.01 0.01 41 1009.8
20260507234224 60 0 4.0 10.0 0.00 0.01 0.01 40 1009.7
20260507233718 61 0 4.0 10.0 0.00 0.01 0.01 40 1009.7
20260507233212 61 0 4.0 12.0 0.00 0.01 0.01 40 1009.8
20260507232706 61 0 5.0 12.0 0.00 0.01 0.01 40 1009.7
20260507231654 61 0 5.0 12.0 0.00 0.01 0.01 40 1009.8
20260507231148 61 0 5.0 15.0 0.00 0.01 0.01 39 1009.9
20260507230642 61 0 5.0 15.0 0.00 0.01 0.01 39 1009.9
20260507230136 61 0 4.0 11.0 0.00 0.01 0.01 39 1010.1
20260507225124 61 0 4.0 11.0 0.00 0.01 0.01 39 1010.2
20260507224618 60 0 4.0 10.0 0.00 0.01 0.01 41 1010.2
20260507224112 59 0 3.0 11.0 0.00 0.01 0.01 42 1010.3
20260507223606 60 0 3.0 11.0 0.00 0.01 0.01 43 1010.3
20260507223100 60 0 3.0 10.0 0.00 0.01 0.01 43 1010.4
20260507222554 60 0 4.0 11.0 0.00 0.01 0.01 43 1010.5
20260507222048 60 0 4.0 11.0 0.00 0.01 0.01 42 1010.7
20260507221542 60 0 3.0 9.0 0.00 0.01 0.01 41 1010.7
20260507221036 61 0 2.0 8.0 0.00 0.01 0.01 41 1010.7
20260507220529 60 0 2.0 6.0 0.00 0.01 0.01 45 1010.7
20260507220023 58 0 2.0 8.0 0.00 0.01 0.01 44 1010.7
20260507215518 59 0 3.0 8.0 0.00 0.01 0.01 44 1010.7
20260507215012 59 0 4.0 9.0 0.00 0.01 0.01 42 1010.7
20260507214506 59 0 4.0 9.0 0.00 0.01 0.01 42 1010.7
20260507213959 59 0 4.0 11.0 0.00 0.01 0.01 43 1010.7
20260507213453 59 0 4.0 11.0 0.00 0.01 0.01 43 1010.7
20260507212948 60 0 4.0 10.0 0.00 0.01 0.01 43 1010.8
20260507211430 59 0 5.0 12.0 0.00 0.01 0.01 48 1011.1
20260507210924 57 0 6.0 13.0 0.00 0.01 0.01 47 1011.1
20260507210418 57 0 5.0 13.0 0.00 0.01 0.01 48 1011.2
20260507205912 56 0 4.0 13.0 0.01 0.01 0.01 52 1011.3
20260507205406 57 0 4.0 12.0 0.01 0.01 0.01 53 1011.4
20260507204900 56 0 5.0 10.0 0.01 0.01 0.01 56 1011.4
20260507204354 55 0 4.0 13.0 0.01 0.01 0.01 56 1011.6
20260507203342 53 0 2.0 6.0 0.01 0.01 0.01 55 1011.8
20260507202836 53 0 2.0 5.0 0.01 0.01 0.01 54 1012.1
20260507202330 53 0 2.0 5.0 0.01 0.01 0.01 54 1012.1
20260507201823 53 0 3.0 9.0 0.01 0.01 0.01 53 1012.0
20260507201318 53 0 5.0 11.0 0.01 0.01 0.01 53 1012.0
20260507200812 53 0 8.0 16.0 0.01 0.01 0.01 51 1012.1
20260507200306 54 0 9.0 22.0 0.00 0.00 0.00 48 1012.3
20260507195800 55 0 9.0 21.0 0.00 0.00 0.00 45 1012.3
20260507195254 56 0 9.0 20.0 0.00 0.00 0.00 41 1012.1
20260507194748 58 0 7.0 20.0 0.00 0.00 0.00 36 1012.0
20260507194242 59 0 4.0 11.0 0.00 0.00 0.00 29 1011.5
20260507193735 60 0 2.0 5.0 0.00 0.00 0.00 29 1011.4
20260507193230 60 0 1.0 5.0 0.00 0.00 0.00 30 1011.2
20260507192724 60 0 2.0 10.0 0.00 0.00 0.00 31 1011.2
20260507192218 60 0 2.0 10.0 0.00 0.00 0.00 29 1011.3
20260507191206 60 0 3.0 11.0 0.00 0.00 0.00 30 1011.4
20260507190700 61 0 2.0 9.0 0.00 0.00 0.00 28 1011.7
20260507190154 61 0 2.0 6.0 0.00 0.00 0.00 29 1011.6
20260507185648 59 0 1.0 6.0 0.00 0.00 0.00 30 1011.7
20260507185142 58 0 4.0 18.0 0.00 0.00 0.00 31 1011.8
20260507184130 59 0 8.0 19.0 0.00 0.00 0.00 27 1012.1
20260507183624 59 0 9.0 23.0 0.00 0.00 0.00 25 1012.0
20260507183118 59 0 8.0 23.0 0.00 0.00 0.00 24 1012.0
20260507182612 60 0 5.0 14.0 0.00 0.00 0.00 24 1011.8
20260507182106 60 0 5.0 13.0 0.00 0.00 0.00 25 1011.7
20260507181055 61 0 7.0 19.0 0.00 0.00 0.00 25 1011.8
20260507180054 61 0 5.0 13.0 0.00 0.00 0.00 24 1012.0
20260507175555 61 0 4.0 13.0 0.00 0.00 0.00 24 1011.9
20260507175054 61 0 4.0 12.0 0.00 0.00 0.00 25 1012.0
20260507174056 60 0 5.0 14.0 0.00 0.00 0.00 26 1012.2
20260507173557 60 0 5.0 12.0 0.00 0.00 0.00 26 1012.3
20260507173052 61 0 5.0 13.0 0.00 0.00 0.00 26 1012.4
20260507172054 60 0 5.0 12.0 0.00 0.00 0.00 25 1012.7
20260507171554 60 0 5.0 12.0 0.00 0.00 0.00 26 1012.8
20260507171051 60 0 5.0 12.0 0.00 0.00 0.00 27 1012.8
20260507170552 60 0 5.0 14.0 0.00 0.00 0.00 25 1012.9
20260507170049 60 0 7.0 15.0 0.00 0.00 0.00 25 1013.0
20260507165549 60 0 7.0 17.0 0.00 0.00 0.00 26 1013.1
20260507165050 61 0 5.0 17.0 0.00 0.00 0.00 26 1013.1
20260507164549 61 0 5.0 16.0 0.00 0.00 0.00 26 1013.1
20260507163549 60 0 6.0 14.0 0.00 0.00 0.00 28 1013.3
20260507163052 59 0 5.0 14.0 0.00 0.00 0.00 27 1013.4
20260507162551 60 0 4.0 13.0 0.00 0.00 0.00 29 1013.4
20260507162050 59 0 4.0 13.0 0.00 0.00 0.00 28 1013.5
20260507161549 59 0 4.0 15.0 0.00 0.00 0.00 28 1013.5
20260507160546 59 0 4.0 9.0 0.00 0.00 0.00 28 1013.6
20260507160047 59 0 4.0 10.0 0.00 0.00 0.00 30 1013.7
20260507155547 58 0 5.0 12.0 0.00 0.00 0.00 30 1013.8
20260507155046 58 0 5.0 12.0 0.00 0.00 0.00 27 1013.9
20260507154548 58 0 5.0 11.0 0.00 0.00 0.00 28 1013.9
20260507154048 58 0 4.0 10.0 0.00 0.00 0.00 29 1014.0
20260507153543 57 0 4.0 13.0 0.00 0.00 0.00 31 1014.0
20260507153043 57 0 5.0 13.0 0.00 0.00 0.00 32 1014.0
20260507152044 58 0 2.0 9.0 0.00 0.00 0.00 30 1014.1
20260507151544 57 0 3.0 9.0 0.00 0.00 0.00 30 1014.1
20260507151043 56 0 3.0 9.0 0.00 0.00 0.00 31 1014.2
20260507150543 57 0 3.0 8.0 0.00 0.00 0.00 32 1014.2
20260507150043 56 0 3.0 9.0 0.00 0.00 0.00 30 1014.2
20260507145543 55 0 3.0 9.0 0.00 0.00 0.00 32 1014.3
20260507145042 55 0 3.0 8.0 0.00 0.00 0.00 32 1014.3
20260507144542 56 0 2.0 8.0 0.00 0.00 0.00 34 1014.4
20260507144043 54 0 2.0 5.0 0.00 0.00 0.00 34 1014.5
20260507143544 55 0 2.0 9.0 0.00 0.00 0.00 34 1014.5
20260507143044 55 0 3.0 9.0 0.00 0.00 0.00 38 1014.5
20260507142544 53 0 3.0 8.0 0.00 0.00 0.00 39 1014.5
20260507142039 54 0 2.0 6.0 0.00 0.00 0.00 36 1014.6
20260507141540 53 0 3.0 9.0 0.00 0.00 0.00 39 1014.7
20260507141041 52 0 3.0 9.0 0.00 0.00 0.00 38 1014.7
20260507140540 52 0 2.0 8.0 0.00 0.00 0.00 37 1014.7
20260507140041 52 0 2.0 5.0 0.00 0.00 0.00 40 1014.6
20260507135037 51 0 2.0 5.0 0.00 0.00 0.00 38 1014.6
20260507134538 52 0 1.0 4.0 0.00 0.00 0.00 42 1014.6
20260507134038 51 0 2.0 4.0 0.00 0.00 0.00 41 1014.5
20260507133535 50 0 1.0 4.0 0.00 0.00 0.00 42 1014.5
20260507133036 51 0 1.0 4.0 0.00 0.00 0.00 42 1014.4
20260507132534 50 0 0.0 2.0 0.00 0.00 0.00 44 1014.4
20260507132035 49 0 1.0 3.0 0.00 0.00 0.00 43 1014.5
20260507131534 48 0 1.0 3.0 0.00 0.00 0.00 45 1014.3
20260507131034 46 0 1.0 3.0 0.00 0.00 0.00 54 1014.4